[[{"header":{"parameterUnit":"m.s-1","parameterCategory":1,"la1":30.2991,"la2":30.254,"lo1":-89.0895,"lo2":-89.0444,"dy":0.0017,"dx":0.0017,"nx":28,"ny":28,"refTime":"2023-09-06T21:00:00:Z","depth":0,"parameterNumber":2,"parameterNumberName":"U-component_of_WINDS"},"data":[0,0,0,0,0,0,0,0,0,0,0,0,0,0,0,0,0,0,0,0,0,0,0,0,0,0,0,0,0,0,0,0,0,0,0,0,0,0,0,0,0,0,0,0,0,0,0,0,0,0,0,0,0,0,0,0,0,0,4.2901,4.2902,0,4.3004,4.3006,4.3007,4.2883,4.2878,4.2873,4.2869,4.2979,4.2986,4.2993,0,0,0,0,0,0,0,0,0,0,0,0,0,4.2598,4.2605,4.29,4.2902,4.2903,4.3004,4.3006,4.3007,4.2883,4.2878,4.2872,4.2867,4.2977,4.2985,4.2994,0,0,0,0,0,0,0,0,0,0,0,0,0,4.2719,4.2607,4.29,4.2854,4.285,4.3004,4.3006,4.3007,4.2885,4.2878,4.2871,4.2864,4.2974,4.2984,4.2995,4.3201,0,0,4.3028,4.3033,0,0,0,0,0,0,0,0,4.2712,4.273,4.2859,4.2857,4.2854,4.2923,4.2939,4.3073,4.2886,4.2872,4.2869,4.2861,4.2966,4.2977,4.3012,4.3206,4.3211,4.3029,4.3036,4.3041,4.3044,0,0,0,0,0,0,0,4.2704,4.2725,4.2942,4.2861,4.2858,4.2828,4.2838,4.2964,4.2957,4.2873,4.2864,4.2878,4.2964,4.3002,4.3014,4.3212,4.3029,4.3039,4.3045,4.305,4.358,4.3587,0,0,0,0,0,0,4.2701,4.2719,4.2938,4.2945,4.2764,4.284,4.285,4.2908,4.2955,4.2956,4.2883,4.2871,4.2987,4.3001,4.3017,4.3261,4.3041,4.3051,4.3057,4.3573,4.3582,4.359,0,0,0,0,0,0,4.2695,4.2721,4.2934,4.283,4.2854,4.2852,4.2918,4.2914,4.2952,4.2963,4.2962,4.2924,4.2982,4.3002,4.3156,4.3263,4.3056,4.3065,4.3564,4.3575,4.3586,4.375,0,0,0,0,0,0,4.2686,4.272,4.2797,4.2832,4.286,4.3071,4.2925,4.2921,4.2971,4.2956,4.3001,4.3002,4.2978,4.314,4.3167,4.3274,4.3074,4.3554,4.3569,4.3582,4.3735,4.3765,4.3792,0,0,0,0,0,4.2676,4.284,4.2802,4.2829,4.2957,4.3077,4.3093,4.3062,4.298,4.3058,4.3065,4.3,4.3247,4.3157,4.3186,4.3298,4.3547,4.3565,4.3581,4.3722,4.3759,4.3791,0,0,0,0,0,0,4.2819,4.2844,4.2802,4.2982,4.3028,4.3056,4.3153,4.3102,4.3174,4.3157,4.3117,4.3128,4.3292,4.331,4.3209,4.35,4.3384,4.3407,4.3481,4.3517,4.3545,4.3536,4.3083,0,0,0,0,0,4.2872,4.2966,4.2983,4.314,4.3165,4.3156,4.3207,4.3179,4.3226,4.3245,4.3263,4.3312,4.34,4.346,4.3542,4.3737,4.3745,4.3829,4.3857,4.388,4.3901,4.4005,4.4043,4.3646,4.3646,4.3645,0,0,4.2981,4.3006,4.3068,4.317,4.3202,4.3301,4.3173,4.3284,4.3357,4.3262,4.3408,4.3423,4.3475,4.3651,4.3729,4.3671,4.4012,4.3902,4.392,4.3929,4.4027,4.4064,4.4098,4.3657,4.3655,4.3654,0,0,4.3231,4.326,4.3393,4.3428,4.3479,4.3471,4.3504,4.354,4.3546,4.3691,4.3622,4.3709,4.3863,4.3902,4.3943,4.4208,4.4151,4.4236,4.4384,4.4487,4.4518,4.4545,4.464,4.4674,4.4257,4.4258,4.4258,0,4.3361,4.3506,4.3469,4.3585,4.3631,4.3548,4.3684,4.3721,4.3796,4.3831,4.3765,4.3955,4.3985,4.4168,4.4233,4.4268,4.4304,4.4231,4.4516,4.4543,4.4569,4.4658,4.4694,4.4268,4.4266,4.4265,4.4264,0,4.3664,4.3766,4.3868,4.3942,4.4,4.4126,4.4108,4.4172,4.4139,4.4139,4.4289,4.4321,4.4408,4.4449,4.4419,4.4629,4.4591,4.4522,4.4405,4.4617,4.47,4.4734,4.4282,4.4278,4.4275,4.4273,0,0,4.4006,4.4057,4.4095,4.4127,4.4177,4.4256,4.4378,4.4462,4.4518,4.4573,4.4674,4.4806,4.4742,4.4788,4.4761,4.4851,4.5059,4.477,4.4771,4.4823,4.5292,4.5344,4.5384,4.5022,4.5028,4.5033,4.5288,0,4.4255,4.4465,4.4435,4.4637,4.4732,4.4655,4.4761,4.4804,4.4807,4.4889,4.4893,4.4986,4.4895,4.4922,4.5008,4.5016,4.5153,4.4997,4.5116,4.5121,4.5105,4.5427,4.5482,4.5721,4.532,4.5326,4.5329,0,4.4575,4.464,4.4852,4.4886,4.4925,4.5021,4.5095,4.5174,4.5221,4.5217,4.5269,4.5226,4.5349,4.523,4.5399,4.5294,4.5341,4.5353,4.5361,4.537,4.5237,4.5445,4.5796,4.5831,4.5381,4.5377,4.5373,0,4.4802,4.4944,4.5088,4.5118,4.5163,4.5232,4.5254,4.5294,4.5347,4.5413,4.5446,4.5526,4.557,4.5633,4.5613,4.5529,4.5787,4.5666,4.5787,4.5788,4.5844,4.5841,4.6207,4.5877,4.5876,4.5876,4.5875,0,4.5084,4.5216,4.5191,4.528,4.5426,4.5391,4.5537,4.555,4.5586,4.5677,4.5616,4.5703,4.5672,4.5757,4.5743,4.5885,4.5905,4.5906,4.5901,4.5911,4.5911,4.5941,4.5923,4.5885,4.5883,4.5881,4.5879,0,4.5362,4.5351,4.5503,4.5533,4.5543,4.565,4.5676,4.576,4.5758,4.5874,4.5899,4.5898,4.5995,4.5981,4.609,4.608,4.6257,4.6232,4.6241,4.6235,4.6356,4.6345,4.6754,4.6805,4.6443,4.6446,4.6449,0,4.5542,4.5642,4.5682,4.5738,4.5765,4.5856,4.5908,4.5878,4.5936,4.5998,4.6075,4.6166,4.6237,4.6396,4.6406,4.6488,4.6464,4.6602,4.6476,4.6484,4.6465,4.6459,4.6469,4.6627,4.6631,4.6634,4.6637,0,4.5863,4.5852,4.5929,4.6006,4.6071,4.613,4.6183,4.6233,4.6207,4.6276,4.6373,4.6429,4.6539,4.6631,4.6709,4.6732,4.6682,4.6676,4.6709,4.672,4.6721,4.6721,4.6308,4.6667,4.6664,4.6662,4.666,4.6659,4.6097,4.6181,4.6223,4.6312,4.6348,4.64,4.648,4.6488,4.6569,4.6655,4.6633,4.6744,4.6789,4.6889,4.6921,4.7007,4.6957,4.7004,4.7016,4.7028,4.7041,4.6708,4.7022,4.7021,4.702,4.7019,4.7019,0,4.6413,4.6436,4.6518,4.6594,4.6664,4.6609,4.6665,4.6727,4.6825,4.6871,4.6943,4.7055,4.7144,4.7161,4.7245,4.7312,4.729,4.7335,4.7329,4.7335,4.7082,4.7045,4.7351,4.735,4.735,4.735,4.735,4.735,4.6586,4.6726,4.6721,4.6879,4.6901,4.7008,4.7045,4.7092,4.7129,4.7257,4.733,4.7339,4.7374,4.746,4.754,4.7542,4.7576,4.763,4.7623,4.7386,4.7353,4.7322,4.7287,4.7638,4.7638,4.7869,4.7871,4.7873]},{"header":{"parameterUnit":"m.s-1","parameterCategory":1,"la1":30.2991,"la2":30.254,"lo1":-89.0895,"lo2":-89.0444,"dy":0.0017,"dx":0.0017,"nx":28,"ny":28,"refTime":"2023-09-06T21:00:00:Z","depth":0,"parameterNumber":3,"parameterNumberName":"V-component_of_WINDS"},"data":[0,0,0,0,0,0,0,0,0,0,0,0,0,0,0,0,0,0,0,0,0,0,0,0,0,0,0,0,0,0,0,0,0,0,0,0,0,0,0,0,0,0,0,0,0,0,0,0,0,0,0,0,0,0,0,0,0,0,0.5759,0.5762,0,0.6016,0.6019,0.6022,0.6143,0.6143,0.6142,0.6142,0.6409,0.6416,0.6424,0,0,0,0,0,0,0,0,0,0,0,0,0,0.5375,0.5382,0.5759,0.5762,0.5765,0.6015,0.6019,0.6022,0.6143,0.6143,0.6142,0.6142,0.6407,0.6416,0.6424,0,0,0,0,0,0,0,0,0,0,0,0,0,0.5578,0.5384,0.5758,0.5855,0.5866,0.6015,0.6019,0.6023,0.6143,0.6143,0.6142,0.6142,0.6404,0.6415,0.6425,0.6498,0,0,0.6459,0.6463,0,0,0,0,0,0,0,0,0.5566,0.5592,0.5838,0.5849,0.5862,0.6047,0.5982,0.6182,0.6143,0.6038,0.6142,0.6142,0.6289,0.6309,0.6358,0.651,0.6522,0.646,0.6466,0.6471,0.6474,0,0,0,0,0,0,0,0.5552,0.5582,0.5861,0.5841,0.5856,0.5887,0.5915,0.602,0.6162,0.6047,0.6056,0.6085,0.6296,0.6348,0.6366,0.6525,0.6459,0.6469,0.6476,0.648,0.6749,0.675,0,0,0,0,0,0,0.5522,0.5569,0.5852,0.5868,0.571,0.5894,0.5926,0.5988,0.6161,0.6187,0.6085,0.609,0.6329,0.6353,0.6375,0.6472,0.6471,0.6481,0.6487,0.6749,0.6749,0.675,0,0,0,0,0,0,0.5513,0.5546,0.5842,0.5721,0.5761,0.5901,0.5969,0.5993,0.6045,0.619,0.6216,0.6112,0.633,0.636,0.6466,0.6483,0.6486,0.6496,0.6748,0.6749,0.675,0.6664,0,0,0,0,0,0,0.5502,0.5542,0.557,0.5721,0.5767,0.5927,0.597,0.5998,0.6063,0.6072,0.6222,0.6246,0.6332,0.6449,0.6477,0.6498,0.6504,0.6747,0.6748,0.6749,0.6666,0.6662,0.6658,0,0,0,0,0,0.5487,0.5537,0.5571,0.5605,0.5805,0.5928,0.5955,0.6051,0.6064,0.6094,0.6187,0.6242,0.6476,0.6459,0.6491,0.6515,0.6747,0.6748,0.6749,0.6668,0.6663,0.6658,0,0,0,0,0,0,0.5386,0.5558,0.5598,0.5698,0.5797,0.5948,0.5989,0.6042,0.6141,0.6145,0.6262,0.6295,0.639,0.6464,0.6442,0.6594,0.6616,0.6624,0.6543,0.654,0.6536,0.6517,0.6513,0,0,0,0,0,0.5375,0.5459,0.5605,0.5679,0.5727,0.5848,0.5906,0.5971,0.6079,0.6122,0.6223,0.6327,0.6424,0.6486,0.6583,0.6676,0.6711,0.6709,0.6705,0.6701,0.6707,0.6762,0.6763,0.6755,0.6755,0.6755,0,0,0.5354,0.5458,0.5504,0.5661,0.5746,0.5831,0.5883,0.5972,0.6037,0.6136,0.6242,0.6319,0.6443,0.6543,0.6592,0.6607,0.6717,0.6703,0.6699,0.6707,0.6764,0.6765,0.6765,0.6756,0.6755,0.6755,0,0,0.5359,0.5445,0.5516,0.5599,0.5726,0.5807,0.5823,0.5966,0.6021,0.6129,0.6205,0.6284,0.6449,0.6534,0.6599,0.6633,0.6688,0.6662,0.6642,0.6695,0.6695,0.6697,0.671,0.6713,0.6667,0.6667,0.6667,0,0.5317,0.5447,0.5546,0.563,0.5697,0.5789,0.5862,0.5938,0.6091,0.6135,0.6149,0.6357,0.6447,0.6568,0.6576,0.6625,0.6649,0.6646,0.6687,0.6689,0.6692,0.6706,0.671,0.6663,0.6663,0.6664,0.6664,0,0.5389,0.5479,0.5521,0.5664,0.5735,0.5813,0.5925,0.5986,0.6044,0.6123,0.6232,0.6342,0.6463,0.6496,0.6555,0.6626,0.6631,0.6664,0.6689,0.6687,0.6702,0.6708,0.6657,0.6658,0.666,0.6661,0,0,0.534,0.5535,0.5549,0.5615,0.5761,0.5832,0.5914,0.6031,0.6081,0.6183,0.6255,0.6391,0.6422,0.6496,0.6564,0.661,0.6631,0.6638,0.6643,0.6634,0.6716,0.6691,0.6696,0.6667,0.6669,0.667,0.6706,0,0.5366,0.5516,0.5606,0.572,0.5804,0.5892,0.5963,0.6061,0.6136,0.6219,0.6304,0.6399,0.6432,0.6477,0.6526,0.6618,0.6649,0.6616,0.6737,0.674,0.6704,0.6704,0.6678,0.6707,0.6713,0.6714,0.6715,0,0.5417,0.5514,0.5635,0.5771,0.581,0.5872,0.5986,0.6064,0.6177,0.6229,0.6309,0.6378,0.6468,0.6484,0.6611,0.6586,0.6641,0.6693,0.6697,0.6713,0.6728,0.6721,0.6719,0.6723,0.6725,0.6724,0.6723,0,0.5369,0.5531,0.5624,0.5678,0.5838,0.588,0.5949,0.6061,0.6125,0.6225,0.6268,0.6377,0.6438,0.6521,0.6618,0.662,0.6736,0.6759,0.6782,0.678,0.6805,0.6802,0.6812,0.6837,0.6837,0.6836,0.6836,0,0.5389,0.546,0.5605,0.5663,0.5745,0.5848,0.5927,0.6004,0.6102,0.6177,0.6259,0.6328,0.6451,0.6534,0.6611,0.6705,0.6731,0.6776,0.6796,0.677,0.6764,0.6809,0.681,0.6838,0.6838,0.6837,0.6837,0,0.5351,0.545,0.5558,0.57,0.5738,0.5792,0.5914,0.5974,0.6053,0.6146,0.6174,0.6299,0.6402,0.6506,0.6645,0.6697,0.6789,0.6815,0.6751,0.6762,0.678,0.6777,0.682,0.6831,0.6846,0.6845,0.6845,0,0.5358,0.5414,0.5561,0.5616,0.5683,0.5771,0.5836,0.594,0.6005,0.6137,0.618,0.6289,0.6382,0.6542,0.6646,0.6753,0.6783,0.679,0.68,0.6771,0.6784,0.678,0.6787,0.6787,0.6786,0.6786,0.6785,0,0.5359,0.5406,0.5496,0.5603,0.5678,0.5769,0.5862,0.5902,0.6025,0.6093,0.6199,0.627,0.6411,0.6518,0.6637,0.671,0.6768,0.6781,0.6793,0.6767,0.6728,0.675,0.6742,0.678,0.6781,0.6781,0.6782,0.6782,0.5345,0.5399,0.5511,0.5609,0.5689,0.5774,0.5837,0.5923,0.6012,0.6134,0.619,0.6296,0.6407,0.6572,0.6643,0.6728,0.6744,0.676,0.6765,0.6767,0.6761,0.6712,0.675,0.675,0.6751,0.6751,0.6751,0,0.5352,0.5428,0.5517,0.5643,0.572,0.5766,0.5871,0.5933,0.6025,0.6122,0.6211,0.6332,0.6436,0.6546,0.6657,0.6704,0.6734,0.673,0.6728,0.6744,0.674,0.672,0.6704,0.6704,0.6704,0.6704,0.6704,0.6704,0.5365,0.5459,0.5518,0.5653,0.5729,0.5832,0.5888,0.5967,0.6045,0.6176,0.6262,0.6333,0.6436,0.6555,0.6652,0.6682,0.672,0.6708,0.6746,0.6741,0.6744,0.6747,0.6729,0.6715,0.6715,0.6743,0.6743,0.6743]}]]